This is the latest recevied weather packets stored in our database for station/object N5ZP. If no packets are shown the sender has not sent any weather packets the latest 10 day(s).
| Time | Temp. | Humidity | Pressure | Rain* | Wind** | Luminosity | Snow |
|---|---|---|---|---|---|---|---|
| 1778082890 | 11.67° C | 88% | 1011.7 hPa | 0 mm | - | 145 W/m² | - |
| 1778081776 | 11.11° C | 91% | 1012.2 hPa | 0 mm | - | 147 W/m² | - |
| 1778081474 | 11.67° C | 91% | 1012.3 hPa | 0 mm | - | 89 W/m² | - |
| 1778081171 | 11.67° C | 92% | 1012 hPa | 0 mm | - | 138 W/m² | - |
| 1778080869 | 11.11° C | 92% | 1011.7 hPa | 1.27 mm | - | 221 W/m² | - |
| 1778080567 | 11.11° C | 91% | 1012 hPa | 1.27 mm | - | 236 W/m² | - |
| 1778080263 | 10.56° C | 91% | 1012.7 hPa | 3.05 mm | - | 154 W/m² | - |
| 1778079960 | 10.56° C | 91% | 1013.2 hPa | 3.05 mm | - | 51 W/m² | - |
| 1778079657 | 10.56° C | 90% | 1013.6 hPa | 3.05 mm | - | 38 W/m² | - |
| 1778079354 | 10.56° C | 90% | 1014 hPa | 1.78 mm | - | 36 W/m² | - |
| 1778079051 | 10.56° C | 90% | 1013.9 hPa | 1.27 mm | - | 33 W/m² | - |
| 1778078748 | 10.56° C | 90% | 1014 hPa | 1.27 mm | - | 24 W/m² | - |
| 1778078445 | 10.56° C | 90% | 1013.2 hPa | 0 mm | - | 39 W/m² | - |
| 1778078142 | 10.56° C | 89% | 1012.8 hPa | 0 mm | - | 32 W/m² | - |
| 1778077841 | 10.56° C | 89% | 1012.5 hPa | 0 mm | - | 25 W/m² | - |
| 1778077538 | 10.56° C | 89% | 1011.3 hPa | 1.78 mm | - | 46 W/m² | - |
| 1778077236 | 10.56° C | 89% | 1011.6 hPa | 1.78 mm | - | 45 W/m² | - |
| 1778076934 | 10.56° C | 88% | 1012.4 hPa | 1.78 mm | - | 21 W/m² | - |
| 1778076632 | 11.11° C | 88% | 1011.4 hPa | 0 mm | - | 43 W/m² | - |
| 1778076329 | 11.11° C | 87% | 1012 hPa | 0 mm | - | 40 W/m² | - |
| 1778076026 | 11.11° C | 86% | 1012.5 hPa | 0 mm | - | 35 W/m² | - |
| 1778075723 | 11.11° C | 86% | 1012.3 hPa | 0 mm | - | 43 W/m² | - |
| 1778075419 | 11.11° C | 85% | 1012.5 hPa | 0 mm | - | 26 W/m² | - |
| 1778075116 | 11.11° C | 85% | 1012.4 hPa | 0 mm | - | 20 W/m² | - |
| 1778074812 | 11.11° C | 85% | 1012.4 hPa | 0 mm | - | 13 W/m² | - |
* Rain latest hour (hover to see other rain measurements)
** Current wind speed in m/s (hover to see current wind gust speed)